| time (UTC) | temp F | wind direction | speed knots | gust knots | rain 1hr in | rain 24hr in | rain mn in | humidity % | barometer mb |
| 20260505201507 | 82 | 280 | 1.7 | 7.8 | 0.00 | 0.00 | 0.00 | 36 | 1006.3 |
| 20260505200007 | 82 | 304 | 2.6 | 8.7 | 0.00 | 0.00 | 0.00 | 35 | 1006.5 |
| 20260505194504 | 82 | 295 | 1.7 | 7.8 | 0.00 | 0.00 | 0.00 | 35 | 1006.6 |
| 20260505193001 | 82 | 338 | 3.5 | 8.7 | 0.00 | 0.00 | 0.00 | 36 | 1006.8 |
| 20260505191559 | 82 | 273 | 3.5 | 13.9 | 0.00 | 0.00 | 0.00 | 38 | 1006.9 |
| 20260505190059 | 82 | 294 | 3.5 | 8.7 | 0.00 | 0.00 | 0.00 | 38 | 1007.1 |
| 20260505184556 | 82 | 284 | 3.5 | 10.4 | 0.00 | 0.00 | 0.00 | 38 | 1007.2 |
| 20260505183055 | 82 | 270 | 3.5 | 8.7 | 0.00 | 0.00 | 0.00 | 38 | 1007.2 |
| 20260505181551 | 82 | 349 | 3.5 | 10.4 | 0.00 | 0.00 | 0.00 | 38 | 1007.5 |
| 20260505180049 | 81 | 262 | 1.7 | 11.3 | 0.00 | 0.00 | 0.00 | 40 | 1007.7 |
| 20260505174548 | 81 | 276 | 4.3 | 9.6 | 0.00 | 0.00 | 0.00 | 38 | 1007.7 |
| 20260505173047 | 81 | 273 | 1.7 | 11.3 | 0.00 | 0.00 | 0.00 | 41 | 1007.8 |
| 20260505171546 | 82 | 297 | 2.6 | 7.0 | 0.00 | 0.00 | 0.00 | 39 | 1008.0 |
| 20260505170041 | 81 | 259 | 1.7 | 7.0 | 0.00 | 0.00 | 0.00 | 44 | 1008.3 |
| 20260505164554 | 81 | 11 | 2.6 | 7.0 | 0.00 | 0.00 | 0.00 | 41 | 1008.6 |
| 20260505163039 | 81 | 329 | 2.6 | 6.1 | 0.00 | 0.00 | 0.00 | 43 | 1008.9 |
| 20260505161548 | 80 | 316 | 0.9 | 7.0 | 0.00 | 0.00 | 0.00 | 43 | 1008.9 |
| 20260505153031 | 78 | 297 | 3.5 | 7.0 | 0.00 | 0.00 | 0.00 | 45 | 1009.0 |
| 20260505151530 | 78 | 83 | 1.7 | 7.0 | 0.00 | 0.00 | 0.00 | 46 | 1009.0 |
| 20260505124611 | 68 | 290 | 0.9 | 4.3 | 0.00 | 0.00 | 0.00 | 62 | 1010.2 |
| 20260505123058 | 66 | 214 | 2.6 | 6.1 | 0.00 | 0.00 | 0.00 | 63 | 1010.2 |
| 20260505121551 | 65 | 262 | 2.6 | 5.2 | 0.00 | 0.00 | 0.00 | 65 | 1010.2 |
| 20260505120101 | 63 | 284 | 0.9 | 3.5 | 0.00 | 0.00 | 0.00 | 70 | 1010.2 |
| 20260505114548 | 60 | 274 | 0.0 | 0.0 | 0.00 | 0.00 | 0.00 | 77 | 1009.9 |
| 20260505113103 | 60 | 274 | 0.0 | 0.9 | 0.00 | 0.00 | 0.00 | 75 | 1009.7 |
| 20260505111544 | 60 | 274 | 0.0 | 0.0 | 0.00 | 0.00 | 0.00 | 73 | 1009.5 |
| 20260505101537 | 60 | 267 | 0.9 | 2.6 | 0.00 | 0.00 | 0.00 | 71 | 1009.0 |
| 20260505100036 | 60 | 269 | 1.7 | 3.5 | 0.00 | 0.00 | 0.00 | 71 | 1008.9 |
| 20260505094535 | 59 | 245 | 0.9 | 2.6 | 0.00 | 0.00 | 0.00 | 73 | 1008.9 |
| 20260505093032 | 60 | 260 | 0.0 | 0.9 | 0.00 | 0.00 | 0.00 | 71 | 1008.9 |
| 20260505091530 | 61 | 260 | 0.0 | 0.0 | 0.00 | 0.00 | 0.00 | 68 | 1008.7 |
| 20260505090026 | 62 | 262 | 0.9 | 3.5 | 0.00 | 0.00 | 0.00 | 66 | 1008.6 |
| 20260505084541 | 62 | 274 | 0.9 | 2.6 | 0.00 | 0.00 | 0.00 | 66 | 1008.5 |
| 20260505083025 | 61 | 264 | 0.9 | 1.7 | 0.00 | 0.00 | 0.00 | 67 | 1008.5 |
| 20260505081524 | 61 | 276 | 0.0 | 1.7 | 0.00 | 0.00 | 0.00 | 67 | 1008.5 |
| 20260505080027 | 62 | 245 | 0.9 | 1.7 | 0.00 | 0.00 | 0.00 | 67 | 1008.5 |
| 20260505074523 | 62 | 258 | 0.9 | 2.6 | 0.00 | 0.00 | 0.00 | 67 | 1008.5 |
| 20260505073022 | 63 | 274 | 0.9 | 3.5 | 0.00 | 0.00 | 0.00 | 65 | 1008.4 |
| 20260505071521 | 63 | 260 | 0.9 | 2.6 | 0.00 | 0.00 | 0.00 | 64 | 1008.2 |
| 20260505070020 | 63 | 259 | 0.9 | 3.5 | 0.00 | 0.00 | 0.00 | 64 | 1008.3 |
| 20260505064520 | 64 | 249 | 0.9 | 1.7 | 0.00 | 0.00 | 0.00 | 64 | 1008.4 |
| 20260505063023 | 64 | 253 | 0.0 | 2.6 | 0.00 | 0.00 | 0.00 | 62 | 1008.6 |
| 20260505061520 | 65 | 228 | 0.9 | 1.7 | 0.00 | 0.00 | 0.00 | 62 | 1008.7 |
| 20260505060016 | 65 | 278 | 1.7 | 3.5 | 0.00 | 0.00 | 0.00 | 61 | 1008.6 |
| 20260505054515 | 65 | 266 | 0.9 | 2.6 | 0.00 | 0.00 | 0.00 | 60 | 1008.6 |
| 20260505053118 | 65 | 279 | 1.7 | 3.5 | 0.00 | 0.00 | 0.00 | 60 | 1008.6 |
| 20260505051517 | 65 | 267 | 0.9 | 3.5 | 0.00 | 0.00 | 0.00 | 61 | 1008.6 |
| 20260505041504 | 63 | 270 | 0.9 | 2.6 | 0.00 | 0.00 | 0.00 | 62 | 1008.4 |
| 20260505040059 | 61 | 246 | 0.0 | 1.7 | 0.00 | 0.00 | 0.00 | 67 | 1008.4 |
| 20260505034617 | 58 | 269 | 0.0 | 0.0 | 0.00 | 0.00 | 0.00 | 71 | 1008.4 |
| 20260505034501 | 58 | 269 | 0.0 | 0.0 | 0.00 | 0.00 | 0.00 | 71 | 1008.4 |
| 20260505033058 | 58 | 269 | 0.0 | 0.9 | 0.00 | 0.00 | 0.00 | 71 | 1008.4 |
| 20260505031558 | 58 | 269 | 0.0 | 0.0 | 0.00 | 0.00 | 0.00 | 67 | 1008.3 |
| 20260505030057 | 60 | 270 | 0.0 | 0.0 | 0.00 | 0.00 | 0.00 | 63 | 1008.3 |
| 20260505024556 | 62 | 273 | 0.0 | 0.0 | 0.00 | 0.00 | 0.00 | 61 | 1008.1 |
| 20260505023100 | 62 | 273 | 0.0 | 0.9 | 0.00 | 0.00 | 0.00 | 60 | 1008.4 |
| 20260505021555 | 62 | 274 | 0.0 | 2.6 | 0.00 | 0.00 | 0.00 | 59 | 1008.4 |
| 20260505020058 | 63 | 264 | 0.9 | 2.6 | 0.00 | 0.00 | 0.00 | 58 | 1008.3 |
| 20260505014554 | 63 | 248 | 0.0 | 0.0 | 0.00 | 0.00 | 0.00 | 57 | 1008.1 |
| 20260505013053 | 64 | 259 | 0.0 | 1.7 | 0.00 | 0.00 | 0.00 | 54 | 1008.1 |
| 20260505011608 | 65 | 255 | 0.0 | 0.9 | 0.00 | 0.00 | 0.00 | 52 | 1008.2 |
| 20260505010052 | 66 | 257 | 0.0 | 2.6 | 0.00 | 0.00 | 0.00 | 50 | 1007.9 |
| 20260505004557 | 66 | 280 | 0.9 | 3.5 | 0.00 | 0.00 | 0.00 | 49 | 1007.7 |
| 20260505003056 | 67 | 274 | 0.0 | 2.6 | 0.00 | 0.00 | 0.00 | 48 | 1007.6 |
| 20260505001604 | 69 | 270 | 0.0 | 3.5 | 0.00 | 0.00 | 0.00 | 46 | 1007.6 |
| 20260505000105 | 70 | 266 | 0.9 | 3.5 | 0.00 | 0.00 | 0.00 | 44 | 1007.5 |
| 20260504234552 | 71 | 283 | 1.7 | 4.3 | 0.00 | 0.00 | 0.00 | 43 | 1007.4 |
| 20260504233103 | 72 | 278 | 1.7 | 6.1 | 0.00 | 0.00 | 0.00 | 43 | 1007.4 |
| 20260504231547 | 72 | 281 | 0.9 | 6.1 | 0.00 | 0.00 | 0.00 | 42 | 1007.5 |
| 20260504230046 | 73 | 266 | 2.6 | 7.0 | 0.00 | 0.00 | 0.00 | 40 | 1007.5 |
| 20260504224544 | 73 | 263 | 2.6 | 4.3 | 0.00 | 0.00 | 0.00 | 40 | 1007.6 |
| 20260504223043 | 74 | 259 | 1.7 | 7.0 | 0.00 | 0.00 | 0.00 | 42 | 1007.6 |
| 20260504221544 | 74 | 291 | 1.7 | 7.0 | 0.00 | 0.00 | 0.00 | 42 | 1007.7 |
| 20260504220041 | 74 | 277 | 1.7 | 5.2 | 0.00 | 0.00 | 0.00 | 40 | 1007.8 |
| 20260504214542 | 74 | 257 | 1.7 | 7.0 | 0.00 | 0.00 | 0.00 | 41 | 1007.8 |
| 20260504213040 | 74 | 239 | 2.6 | 5.2 | 0.00 | 0.00 | 0.00 | 40 | 1007.8 |
| 20260504211538 | 74 | 283 | 2.6 | 10.4 | 0.00 | 0.00 | 0.00 | 40 | 1007.8 |
| 20260504210038 | 74 | 288 | 4.3 | 10.4 | 0.00 | 0.00 | 0.00 | 40 | 1007.8 |
| 20260504204535 | 75 | 269 | 0.9 | 6.1 | 0.00 | 0.00 | 0.00 | 42 | 1007.8 |
| 20260504203034 | 74 | 314 | 0.9 | 8.7 | 0.00 | 0.00 | 0.00 | 40 | 1007.8 |